Temp
21 20 19 21 19 20 20 19 19 19 19 19 16 16 15 14 14 13 12 11 11 11 14 15 15 15 15 15 15 15 15 15 15 14 14 14 14 13 13 13 13 13 13 13
21 21 22 22 20 21 20 20 20 21 19 19 17 16 14 13 15 14 13 11 12 12 11 13 14 15 14 15 15 15 15 15 15 15 15 14 14 13 13 13 13 13 13 13
21 22 23 22 22 22 20 19 20 21 20 18 17 17 16 16 14 14 14 14 13 13 11 12 13 14 14 15 15 15 15 15 15 15 14 14 14 14 14 13 13 13 12 12
21 21 23 22 23 22 23 21 21 19 19 19 19 17 16 15 16 15 16 13 13 13 13 13 13 14 14 15 15 15 15 15 15 15 15 15 14 14 12 12 11 12 11 11
21 21 21 22 23 22 22 21 20 20 19 19 19 18 18 16 16 17 16 16 14 14 13 12 13 14 15 15 15 15 15 15 15 15 15 14 14 12 12 12 12 11 10 10
20 21 21 22 22 22 21 21 18 16 17 17 19 18 18 15 17 19 18 17 15 14 14 14 14 14 15 15 15 15 15 15 15 14 14 14 13 12 12 11 10 10 9 9
20 20 21 21 22 21 19 17 14 17 14 16 19 18 19 20 18 18 19 18 17 14 14 13 12 13 14 15 15 15 15 15 14 14 13 13 12 11 11 10 9 8 8 7
18 20 20 19 20 21 21 19 13 19 15 18 19 19 19 22 19 19 19 19 16 15 14 14 13 13 14 15 15 15 15 14 13 13 12 11 11 10 9 9 8 7 7 6
17 19 19 19 19 20 20 19 18 16 14 15 17 19 20 21 20 20 18 16 15 15 14 14 13 13 14 15 15 15 14 13 12 12 11 10 10 9 9 8 7 7 6 6
18 17 18 19 20 19 20 18 16 12 16 17 16 17 18 19 19 19 18 16 14 15 14 14 13 13 14 14 14 13 13 12 11 10 10 10 9 8 8 7 7 6 6 5
17 15 17 19 18 17 17 16 14 14 12 14 14 17 17 18 16 18 18 16 14 13 13 13 13 13 13 13 13 12 11 10 10 10 9 9 8 8 7 7 6 6 5 5
17 13 14 18 17 17 17 18 15 12 15 11 13 15 18 17 16 18 17 16 13 12 11 11 10 10 11 11 10 10 10 10 9 9 8 8 8 7 7 6 5 5 5 4
16 13 13 16 16 15 17 13 10 9 11 14 12 15 18 17 17 15 17 14 12 11 10 9 9 8 8 9 9 9 9 9 9 8 8 8 7 7 6 5 5 4 4 4
15 13 15 14 16 11 12 14 7 11 11 13 12 16 17 17 18 17 13 11 11 11 10 9 8 7 8 8 9 9 8 8 8 8 8 7 7 6 5 5 5 4 4 3
15 15 12 14 15 15 16 16 12 11 14 14 18 15 18 18 18 18 12 11 10 10 9 8 7 7 7 8 8 8 8 8 8 7 7 7 6 5 5 5 4 4 3 3
13 14 15 16 15 14 15 15 14 13 14 13 14 15 17 16 15 14 12 11 10 10 9 8 8 7 7 8 8 8 8 7 7 7 7 7 6 5 5 4 4 4 3 3
13 11 11 14 14 14 13 14 15 14 14 14 14 16 15 15 15 14 11 11 10 9 9 8 8 7 8 8 8 7 7 7 7 7 6 6 5 5 5 4 4 3 3 3
12 11 8 9 12 10 15 16 16 15 15 13 14 14 14 14 9 9 11 10 10 9 8 8 7 7 7 8 8 7 7 6 6 6 6 5 5 4 4 4 3 3 3 2
12 9 7 8 10 13 15 16 17 17 16 15 14 13 12 10 10 8 8 8 8 7 7 7 8 8 7 7 7 6 6 5 5 5 4 4 3 3 2 2 2 2 1 1
11 10 10 8 10 11 13 16 17 16 13 15 13 12 11 12 11 8 7 7 6 7 7 7 7 7 6 6 6 5 4 4 3 3 3 2 2 2 1 1 0 -0 -0 -0
10 8 8 6 9 11 13 14 16 15 12 14 12 11 12 10 8 6 7 7 7 7 7 6 6 5 5 5 5 3 3 2 1 2 1 1 1 0 -0 -1 -1 -1 -1 -2
11 8 6 6 6 11 13 16 15 12 12 12 10 8 6 6 6 6 6 7 7 6 5 5 4 3 3 3 3 2 1 0 0 0 0 -0 -1 -1 -1 -2 -2 -2 -3 -3
12 11 9 10 10 11 13 14 13 11 11 10 8 6 7 6 6 6 5 5 5 4 4 4 3 2 1 1 1 -0 -1 -0 -1 -1 -1 -2 -2 -2 -2 -3 -3 -3 -4 -4
12 10 9 11 12 11 12 13 13 12 10 7 6 6 7 6 6 5 5 4 4 3 3 2 1 0 -0 -0 -1 -1 -2 -2 -2 -2 -2 -2 -3 -3 -3 -4 -4 -4 -5 -5
10 10 10 10 12 12 12 12 9 7 7 7 7 7 6 5 5 4 4 3 2 1 1 1 -0 -1 -1 -2 -2 -3 -3 -3 -3 -3 -3 -3 -4 -4 -5 -5 -5 -6 -6 -6
9 10 10 10 11 11 10 8 7 7 6 6 5 4 5 4 3 3 2 1 0 -0 -1 -1 -1 -2 -3 -3 -3 -3 -3 -3 -3 -4 -4 -5 -5 -6 -6 -6 -6 -6 -6 -6
Height
832 845 857 852 856 856 863 870 875 872 868 875 886 884 885 882 884 886 887 889 890 889 888 891 892 895 896 897 896 897 897 896 896 897 897 897 898 897 895 895 894 893 891 889
843 851 842 842 850 852 861 871 872 864 866 870 881 882 882 882 877 879 883 888 887 889 889 889 891 892 893 895 895 896 897 896 895 894 895 896 897 897 896 895 894 893 891 890
850 845 838 846 850 854 859 867 871 868 869 875 880 881 878 873 876 876 878 877 880 880 883 885 887 889 891 892 893 894 895 895 896 895 895 896 896 896 895 894 894 892 891 890
848 844 842 847 848 851 857 853 859 870 877 891 873 897 876 871 868 871 869 872 874 876 878 881 884 886 888 889 891 892 893 894 895 895 895 895 896 895 895 895 895 893 891 889
852 848 850 852 850 846 854 850 861 867 878 878 881 893 869 869 870 861 858 859 865 867 870 874 876 879 883 886 888 890 891 892 893 894 895 894 895 896 896 895 894 894 892 890
849 843 845 846 844 845 847 856 870 881 887 901 878 884 875 874 852 841 846 848 853 860 865 870 874 877 881 884 886 887 889 890 892 892 893 894 894 895 895 895 895 894 893 892
855 854 846 844 850 847 857 874 915 905 919 908 870 883 859 836 836 831 832 833 840 850 857 864 869 873 877 879 882 884 886 888 890 891 892 892 893 894 895 896 895 894 893 891
866 870 857 852 854 857 858 868 908 896 913 893 870 874 852 824 825 822 821 825 837 844 850 855 860 866 870 873 878 881 883 885 887 889 890 892 893 893 894 894 894 893 893 892
868 863 855 853 854 855 861 873 868 890 901 901 879 855 835 826 828 824 826 830 835 838 843 848 855 861 865 870 874 879 882 884 886 888 890 891 893 894 894 894 893 892 892 892
854 870 860 855 853 856 858 863 887 905 905 901 887 873 862 843 838 830 831 832 833 834 840 845 850 856 862 869 874 879 882 885 888 890 892 893 894 894 894 894 893 892 891 890
853 865 870 859 863 869 870 874 883 888 902 904 907 876 848 844 842 833 828 829 832 836 838 842 848 855 862 869 874 878 882 885 889 893 894 894 894 893 894 893 892 892 890 889
849 871 883 864 861 861 862 865 874 902 893 908 899 881 840 840 838 831 829 829 833 836 841 844 848 854 863 869 875 881 886 889 891 894 895 892 892 892 893 892 891 890 889 888
847 875 890 874 872 869 866 878 889 896 892 887 901 876 837 837 834 836 831 835 836 838 843 848 853 858 865 872 878 883 887 891 892 892 893 892 893 893 891 891 890 889 888 886
842 866 868 883 869 882 886 876 899 888 900 885 883 857 843 838 836 833 840 842 843 844 846 852 857 863 869 875 881 885 888 890 892 891 892 893 893 892 891 890 889 888 886 884
849 863 871 868 863 866 863 864 878 883 871 875 851 859 836 836 833 832 840 847 847 850 852 857 862 867 872 878 882 886 888 890 892 892 893 893 892 891 890 888 886 884 882 880
855 865 863 862 861 865 866 863 863 868 862 865 861 854 835 832 835 837 839 842 847 852 857 861 866 871 876 880 884 887 890 891 891 892 892 891 890 889 887 885 882 880 878 876
858 874 880 872 868 868 879 857 851 853 853 853 860 841 836 836 837 835 841 844 848 853 858 864 870 874 878 882 886 889 891 892 891 891 890 889 888 887 884 882 879 877 874 871
862 871 889 895 878 902 851 841 842 847 845 846 842 840 839 838 846 844 841 844 850 856 862 868 872 877 882 886 889 890 892 892 890 889 888 887 886 884 882 879 876 873 870 867
852 873 896 901 893 868 844 840 839 841 842 838 841 842 841 845 845 853 852 852 856 860 866 872 877 882 886 888 890 891 891 891 890 888 887 885 883 882 879 876 873 869 866 864
859 864 875 896 893 888 855 839 834 836 855 840 841 841 845 843 852 863 862 861 864 868 873 878 882 885 887 890 890 890 891 890 889 888 886 885 883 881 878 874 871 869 866 863
870 881 890 905 887 868 845 840 835 854 860 840 841 842 843 850 856 861 864 868 870 875 878 882 884 888 890 891 890 890 891 891 891 889 887 884 882 879 876 873 870 867 863 860
858 879 897 902 907 874 839 837 845 846 841 842 845 849 855 859 863 867 870 874 878 882 885 887 888 891 893 893 892 893 893 893 891 888 885 883 880 878 875 872 868 865 861 856
853 850 862 864 859 841 836 836 835 839 842 844 848 854 855 861 867 872 877 881 884 887 890 892 892 895 896 896 896 895 894 891 889 887 884 881 879 876 872 869 865 861 858 854
839 841 854 849 837 838 835 835 835 838 841 845 850 855 858 863 870 876 881 885 888 891 894 895 896 897 898 898 896 895 893 891 888 886 883 880 877 873 870 867 864 859 855 851
836 838 841 843 837 836 835 835 838 843 845 849 855 859 862 866 875 879 885 889 893 895 897 898 898 899 899 897 895 894 893 890 887 884 881 878 875 871 867 864 861 857 852 849
828 830 837 837 824 827 831 835 839 843 850 854 855 865 870 870 877 883 888 893 895 897 899 899 899 899 899 898 896 894 892 890 887 883 880 877 873 869 864 860 854 853 849 844
Wind_Speed
4 6 11 17 7 7 5 4 5 3 5 5 7 4 9 10 6 9 9 9 9 10 18 22 19 17 16 13 10 9 7 8 8 5 7 5 5 5 7 8 9 10 12 13
5 3 2 8 3 4 5 4 4 1 5 5 5 10 6 8 11 10 12 9 11 6 9 22 22 21 21 18 12 9 9 9 7 6 10 7 5 4 6 8 9 9 9 10
3 1 2 6 3 3 3 6 3 3 3 4 5 6 4 6 4 6 8 11 11 15 13 17 25 26 22 21 17 11 12 10 9 10 12 10 7 4 7 11 14 12 9 9
3 3 2 5 1 3 4 8 6 7 5 4 3 4 5 8 15 10 15 12 14 14 13 19 22 28 26 23 19 16 13 10 10 9 7 5 6 5 8 11 14 14 14 14
3 1 3 4 2 1 4 5 7 3 3 3 1 2 6 2 11 18 18 18 16 18 16 17 26 33 30 25 24 20 16 13 11 9 6 5 2 3 7 9 10 11 13 15
2 1 1 1 2 2 4 6 7 5 2 2 6 6 5 5 9 11 16 19 18 16 16 22 26 32 29 25 26 24 19 14 12 9 6 4 2 7 6 8 10 12 13 15
4 3 3 2 3 4 5 6 2 3 3 5 2 2 9 7 8 9 17 21 18 17 18 16 21 27 31 29 28 25 22 17 14 10 7 9 10 7 8 8 9 11 14 17
6 2 2 4 2 4 1 5 5 5 3 4 3 6 6 3 7 9 11 13 9 15 16 17 26 28 32 33 29 26 22 17 16 14 15 13 10 8 8 8 9 12 13 15
4 2 1 3 2 2 2 1 2 6 3 2 4 7 8 4 7 2 5 7 11 15 16 17 24 28 31 34 31 26 19 17 20 20 17 13 9 7 7 8 9 11 11 13
5 4 1 1 1 2 1 4 3 3 2 4 5 5 5 7 10 6 5 8 9 11 13 14 23 27 29 31 28 19 20 23 20 17 13 10 8 8 6 6 8 9 10 12
4 3 3 1 2 6 1 1 5 4 4 4 1 5 4 4 9 8 6 6 8 8 11 12 20 22 22 21 19 22 24 23 18 13 11 9 7 7 6 6 7 9 11 13
1 5 3 3 1 1 2 2 5 4 4 3 3 6 2 4 4 5 8 5 4 7 7 10 18 25 25 26 27 26 22 19 15 11 8 7 6 5 4 5 6 8 11 13
7 1 3 6 4 4 2 2 4 3 3 5 4 6 4 5 6 5 2 3 6 8 11 13 19 22 25 29 28 24 19 15 11 8 5 5 3 2 2 3 5 8 12 12
7 3 6 6 4 4 0 3 1 4 2 3 7 7 11 5 6 5 5 5 6 8 11 12 16 21 25 29 25 20 16 11 8 5 3 2 3 3 1 2 6 10 13 11
3 5 3 4 4 4 4 5 6 7 7 6 12 6 14 3 4 1 6 5 8 10 12 12 13 20 25 25 20 16 12 9 6 4 2 0 3 4 2 5 8 11 13 12
3 1 2 2 1 5 4 8 9 8 4 8 7 18 7 10 7 4 9 10 11 12 12 13 19 20 19 21 17 13 9 5 4 3 2 4 5 4 6 9 11 13 14 14
4 5 3 3 3 2 4 11 9 5 4 5 7 10 5 6 8 4 8 10 13 13 14 13 16 17 20 17 13 9 5 3 4 4 4 4 4 8 12 13 14 17 17 17
6 5 2 2 3 1 7 3 5 7 7 8 7 6 7 4 4 8 4 11 13 14 13 15 18 20 17 13 9 6 3 2 4 5 3 5 10 13 15 16 19 22 21 18
3 5 3 3 3 6 7 2 3 3 5 1 3 6 2 5 4 8 8 7 9 14 17 21 21 17 12 9 6 7 8 8 9 8 10 12 13 14 17 19 20 19 17 14
5 5 4 2 3 5 6 3 1 2 5 2 3 4 6 1 3 1 5 14 18 22 25 23 17 15 14 11 10 11 11 13 14 13 12 12 14 16 18 16 13 17 21 22
2 2 5 2 2 7 7 7 0 3 6 2 2 3 2 2 2 9 14 16 21 22 21 20 22 20 16 12 11 14 13 14 12 13 15 16 15 14 12 18 20 22 21 22
7 6 3 3 3 7 5 2 5 5 2 1 2 3 8 10 11 11 12 15 17 19 22 22 22 19 16 14 13 13 13 13 16 17 16 14 12 15 19 20 19 19 21 25
2 7 5 8 6 4 3 4 2 4 3 3 5 7 13 14 12 11 11 17 18 19 19 17 19 20 17 15 14 15 15 18 18 15 14 13 18 21 18 18 21 24 24 24
3 4 3 3 3 6 4 2 3 3 3 7 8 8 12 16 14 14 15 16 17 16 16 16 17 17 17 14 15 17 17 16 14 15 17 20 22 20 19 23 23 22 23 23
5 6 6 3 3 1 4 3 5 7 11 13 15 13 15 16 12 15 14 16 16 18 17 17 17 16 14 15 16 16 16 16 18 19 20 21 23 23 24 22 20 21 23 23
5 7 5 6 8 5 3 8 8 12 10 11 16 15 17 23 18 20 17 17 17 17 16 16 14 14 14 15 16 17 19 19 20 20 20 20 21 20 20 23 27 23 22 22
Wind_Direction
351 118 160 178 178 141 138 146 184 205 185 133 207 239 217 211 206 202 198 197 201 201 196 186 181 179 178 176 162 158 150 135 120 149 152 138 106 75 54 41 31 24 25 28
34 134 247 192 251 279 115 153 207 124 148 149 172 248 234 208 218 204 198 202 206 189 192 194 189 190 189 179 168 159 150 146 124 133 148 141 125 64 32 34 15 349 348 355
125 130 76 145 247 159 108 173 181 154 94 49 142 290 220 225 227 200 217 208 202 195 191 196 195 194 189 186 174 165 160 153 142 125 133 129 131 53 40 23 13 18 4 341
118 326 123 148 106 167 143 155 156 135 114 216 164 274 265 213 219 223 217 210 203 204 201 196 195 198 195 189 180 176 172 173 161 155 154 135 100 69 28 45 58 57 48 48
221 38 91 100 199 52 193 131 144 133 105 110 280 27 264 157 230 230 221 216 210 205 195 192 195 197 195 188 188 184 178 174 164 155 150 143 141 29 73 66 58 49 40 36
126 36 69 137 35 32 136 81 53 53 66 357 225 168 267 195 215 232 217 218 210 200 200 198 198 199 195 190 190 190 188 190 191 190 190 206 201 126 99 63 50 44 34 27
25 337 337 42 73 30 74 71 2 352 2 226 147 170 242 235 235 217 209 214 203 192 192 187 183 193 195 191 194 195 196 203 205 206 202 162 141 114 82 66 53 43 35 28
145 251 3 2 48 184 155 148 151 210 195 270 250 233 253 268 285 243 213 216 186 188 190 189 189 190 193 195 197 199 200 202 199 179 152 142 126 110 94 73 55 48 42 34
138 185 168 66 350 84 206 169 165 103 22 44 256 295 324 346 354 339 197 156 181 187 188 187 185 187 190 195 198 200 194 180 164 155 146 134 120 104 89 76 57 49 39 28
198 111 32 314 123 35 139 151 73 358 159 256 283 280 241 347 316 302 206 203 194 186 181 180 179 181 187 194 197 189 170 158 150 144 138 128 117 100 76 65 59 48 31 16
130 98 285 21 190 185 82 61 51 118 136 180 263 262 216 304 290 277 294 225 198 180 179 173 170 168 171 179 175 159 154 148 142 139 132 125 108 82 75 67 51 32 17 12
100 122 156 189 333 359 185 212 145 126 241 236 160 276 287 297 321 251 293 332 141 147 136 130 128 131 138 144 143 140 137 136 135 133 127 104 83 90 86 60 33 19 10 358
179 10 49 343 1 3 186 75 105 114 101 199 147 259 289 352 2 35 318 107 122 122 115 112 112 116 121 129 134 132 132 129 127 119 89 68 103 130 82 41 30 6 353 340
90 127 160 193 200 146 216 214 146 133 136 191 225 281 289 312 322 347 59 103 103 114 116 112 108 113 119 131 132 129 125 122 115 100 92 123 173 184 143 16 350 343 340 326
95 170 143 220 209 185 203 205 184 190 213 192 268 230 261 270 244 124 134 109 113 113 112 115 116 118 125 130 128 125 121 116 103 97 107 65 192 203 258 317 331 335 332 318
10 144 135 300 234 220 254 258 228 225 250 246 275 277 270 266 269 222 175 151 134 125 121 121 122 124 125 131 130 125 119 108 79 34 347 312 222 240 303 318 320 320 317 307
111 130 104 247 356 34 319 235 219 202 195 170 213 250 296 283 285 259 155 146 142 135 130 126 125 127 137 136 131 119 99 71 9 336 313 244 267 306 314 309 306 306 304 300
131 108 104 193 40 28 242 236 225 214 245 218 278 288 281 285 45 35 94 138 135 128 124 121 123 131 132 128 112 91 87 39 5 352 356 315 314 316 311 305 308 308 306 302
102 119 81 132 197 286 301 3 132 172 285 155 280 299 153 133 74 26 17 76 103 108 108 119 126 122 121 114 99 93 71 51 40 16 353 345 334 325 326 329 325 323 326 325
75 66 117 123 131 232 236 279 53 75 289 322 269 265 168 236 107 199 59 94 95 100 113 117 111 104 97 89 92 79 59 45 35 28 19 7 358 346 339 339 350 345 336 327
95 34 153 135 201 286 245 248 22 99 238 317 3 124 112 96 238 128 107 94 103 112 109 106 101 91 87 83 72 63 50 43 24 6 355 351 348 343 355 346 345 339 333 329
166 150 181 88 90 273 189 64 172 209 158 99 80 104 97 106 101 99 96 94 90 89 97 104 94 83 73 65 60 65 46 15 2 355 354 354 1 356 347 345 343 338 333 331
216 181 179 178 210 237 240 217 178 154 150 147 109 110 121 112 105 98 90 91 90 95 99 99 92 79 67 66 56 44 13 1 359 360 9 11 352 347 344 341 337 335 335 330
239 157 145 99 230 226 222 179 143 151 110 104 106 114 118 114 109 105 103 100 96 90 85 90 80 69 59 49 30 17 10 9 17 13 358 351 348 341 337 338 338 332 327 323
191 131 167 258 266 41 270 211 123 92 104 102 92 108 116 111 109 113 105 98 92 88 85 74 65 57 46 28 23 23 21 14 2 354 351 348 344 339 334 333 330 326 319 316
187 176 163 216 203 162 206 140 130 116 114 113 113 98 100 113 112 107 98 97 95 86 74 64 55 43 34 33 31 26 16 5 356 351 349 345 339 337 335 329 323 323 318 315